Location: Pensacola
(30.4142°N, 87.2155°W)
Time: 06:32:17
(UTC-06:00)

PEGASUS DEB - Visible Passes

Search period start: 23 February 2024 00:00
Search period end: 04 March 2024 00:00
Orbit: 576 x 1030 km, 82.0° (Epoch: 21 February)

Date Brightness Start Highest point End Pass type
(mag) Time Alt. Az. Time Alt. Az. Time Alt. Az.
23 Feb ? 19:11:15 10° S 19:17:23 83° E 19:24:00 10° N visible
23 Feb ? 20:57:39 10° W 20:59:58 12° WNW 21:02:19 10° NW visible
24 Feb ? 05:52:38 10° NNE 05:57:46 33° ENE 06:02:20 10° SE visible
24 Feb ? 18:45:19 10° S 18:51:20 57° E 18:57:45 10° NNE visible
24 Feb ? 20:29:18 10° WSW 20:33:31 18° WNW 20:37:54 10° NNW visible
25 Feb ? 05:27:10 10° NNE 05:31:23 21° ENE 05:35:14 10° ESE visible
25 Feb ? 18:19:38 10° SSE 18:25:20 38° E 18:31:20 10° NNE visible
25 Feb ? 20:01:56 10° SW 20:07:09 27° WNW 20:12:38 10° NNW visible
26 Feb ? 05:02:18 10° NE 05:04:55 13° ENE 05:07:24 10° E visible
26 Feb ? 19:35:01 10° SW 19:40:51 39° WNW 19:47:00 10° N visible
27 Feb ? 19:08:25 10° SSW 19:14:38 58° W 19:21:09 10° N visible
28 Feb ? 05:49:28 10° N 05:54:56 61° E 05:59:42 10° SSE visible
28 Feb ? 18:42:06 10° S 18:48:28 83° W 18:55:07 10° N visible
29 Feb ? 05:23:35 10° N 05:28:38 38° ENE 05:33:05 10° SE visible
29 Feb ? 18:16:01 10° S 18:22:21 69° E 18:28:55 10° NNE visible
29 Feb ? 20:00:57 10° WSW 20:04:39 16° WNW 20:08:23 10° NW visible
01 Mar ? 04:57:58 10° NNE 05:02:14 24° ENE 05:06:07 10° SE visible
01 Mar ? 19:33:16 10° SW 19:38:15 23° WNW 19:43:19 10° NNW visible
02 Mar ? 04:32:50 10° NE 04:35:46 15° ENE 04:38:33 10° ESE visible
02 Mar ? 19:06:09 10° SW 19:11:55 33° WNW 19:17:47 10° NNW visible
03 Mar ? 05:46:35 10° NNW 05:51:47 66° W 05:56:20 10° S visible
03 Mar ? 18:39:24 10° SSW 18:45:38 48° W 18:51:59 10° N visible
